Location: Solon
(41.3849°N, 81.4081°W)
Time: 13:34:21
(UTC-04:00)

Daily predictions for brighter satellites

Satellite Brightness Start Highest point End
(mag) Time Altitude Azimuth Time Altitude Azimuth Time Altitude Azimuth
NOSS 3-2 (C) 3.4 21:15:11 10° SSW 21:21:03 81° ESE 21:27:35 10° NE
ISS -1.6 21:18:49 10° W 21:21:45 29° NNW 21:24:40 10° NE
Cosmos 1570 Rocket 4.3 21:17:11 10° SSW 21:22:30 79° WNW 21:27:54 10° NNE
Tiangong 2 1.2 21:19:58 10° W 21:23:07 80° NNW 21:26:17 10° ENE
Cosmos 2084 3.4 21:19:25 10° SSW 21:23:45 70° ESE 21:27:51 10° NE
Shenzhou-11 Module 2.0 21:23:10 10° WNW 21:26:09 79° NNE 21:29:06 10° E
ATLAS CENTAUR R/B 4.1 21:24:23 10° SSW 21:30:20 76° SE 21:48:51 10° NE
ERS-1 Rocket 4.4 21:28:08 10° ESE 21:32:02 23° ENE 21:35:58 10° NNE
Cosmos 1743 2.7 21:30:09 10° N 21:33:59 73° E 21:37:47 10° SSE
ATLAS CENTAUR R/B 3.9 21:32:51 10° WNW 21:36:13 20° WSW 21:39:43 10° SSW
CENTAUR R/B 2.7 21:31:45 10° S 21:37:21 48° ESE 21:43:45 10° NE
Iridium 2 4.0 21:34:34 10° SSE 21:38:14 46° E 21:41:56 10° NNE
ELECTRON R/B 4.3 21:36:34 10° N 21:39:02 89° E 21:41:32 10° S
SJ 16-02 3.1 21:37:09 10° NNE 21:40:18 19° ENE 21:43:25 10° ESE
Cosmos 2333 Rocket 4.4 21:38:30 10° NNE 21:40:32 12° NE 21:42:34 10° ENE
Cosmos 1898 Rocket 3.6 21:35:52 10° NNW 21:41:12 84° WSW 21:46:31 10° SSE
Meteor 1-12 Rocket 4.4 21:36:00 10° N 21:42:00 89° E 21:48:02 10° S
CZ-4C R/B 4.2 21:37:06 10° NNW 21:42:58 28° NE 21:49:26 10° E
Cosmos 2233 Rocket 4.1 21:38:20 10° S 21:44:29 87° W 21:50:44 10° N
Cosmos 1814 Rocket 4.0 21:39:25 10° S 21:44:36 67° ESE 21:49:54 10° NNE
Resurs 01 Rocket 2.6 21:47:15 10° S 21:51:28 46° W 21:55:44 10° NNW
Cosmos 1833 4.5 21:46:18 10° S 21:51:46 47° ESE 21:57:12 10° NE
H-2A R/B 2.5 21:48:25 13° SE 21:52:32 43° ENE 21:57:19 10° N
ATLAS 3B R/B 4.3 21:46:04 10° WSW 21:52:44 41° NW 21:59:11 10° NNE
Cosmos 990 Rocket 4.0 21:48:36 10° NNW 21:53:51 89° WSW 21:58:52 11° SSE
Meteor 2-4 Rocket 3.7 21:48:48 10° S 21:54:09 62° E 21:59:40 10° NNE
SL-08 RB Rocket 4.2 21:52:38 14° SE 21:56:10 44° ENE 22:00:32 10° N
Aureole 2 Rocket 2.2 21:56:23 10° N 21:59:14 49° ENE 22:00:42 23° SE
Lacrosse 5 rocket 2.3 21:55:08 10° NW 21:59:16 40° NE 22:02:25 15° ESE
ARGOS 3.2 21:56:26 12° SSE 22:01:20 68° ENE 22:06:44 10° N
Cosmos 1515 4.3 22:00:44 16° SSE 22:03:19 38° E 22:06:53 10° NNE
Cosmos 2322 Rocket 2.5 22:01:18 10° NNW 22:06:52 63° WSW 22:12:02 12° S
Cosmos 2322 4.3 22:01:36 10° NNW 22:07:04 43° ENE 22:10:59 18° SE
Cosmos 1242 Rocket 3.9 22:07:47 10° NNW 22:11:10 36° W 22:14:29 10° SSW
SL-16 R/B 3.0 22:11:33 10° NW 22:16:59 49° WSW 22:22:11 11° S
Cosmos 2150 Rocket 4.2 22:16:33 10° NNW 22:21:55 73° WSW 22:25:55 18° S
CSL-04 DEB 4.4 22:19:57 22° SSE 22:22:35 78° ENE 22:26:40 10° N
Cosmos 1340 Rocket 2.9 22:18:53 10° SSW 22:22:55 78° W 22:27:02 10° N
MetOp-B 4.2 22:23:56 17° SSE 22:28:04 84° WSW 22:33:28 10° NNW
Cosmos 540 Rocket 3.4 22:23:36 10° S 22:28:44 73° ESE 22:33:55 10° NNE
Cosmos 1025 Rocket 3.9 22:27:28 26° SE 22:28:49 32° E 22:32:45 10° NNE
Cosmos 1513 Rocket 4.4 22:23:32 10° S 22:29:37 81° E 22:35:50 10° N
Cosmos 2034 Rocket 3.9 22:29:19 15° S 22:34:29 71° E 22:40:38 10° NNE
Cosmos 2219 4.0 22:34:42 25° SE 22:36:28 30° ESE 22:41:26 10° NE
Cosmos 1464 Rocket 4.1 22:30:57 10° S 22:37:18 80° W 22:43:44 10° N
Cosmos 2237 4.2 22:32:10 10° NNW 22:37:55 74° ENE 22:41:04 28° SE
SPOT 5 2.8 22:37:55 31° SE 22:39:52 59° ENE 22:44:24 10° N
USA 245 3.2 22:38:32 34° SSE 22:40:05 88° WSW 22:44:33 10° NNW
Terra 2.9 22:38:20 24° ESE 22:40:08 31° ENE 22:44:18 10° N
Cosmos 1455 Rocket 3.9 22:36:55 10° NNW 22:41:07 48° W 22:44:20 16° SSW
Meteor 1-15 Rocket 4.2 22:43:33 10° N 22:49:18 86° W 22:52:34 26° S
Helios 1A 2.9 22:51:28 39° SSE 22:52:59 89° E 22:57:11 10° NNW
DELTA 2 R/B (1) 4.2 22:48:40 10° SW 22:53:20 33° SSE 22:53:20 33° SSE
Okean 2 3.3 22:52:12 36° S 22:53:52 80° E 22:58:03 10° N
CZ-2C R/B 3.9 22:50:54 10° NE 22:55:26 24° E 22:56:06 24° ESE
Cosmos 2360 Rocket 2.6 22:50:23 10° NNW 22:55:55 57° WSW 22:58:58 26° S
Cosmos 372 Rocket 3.9 22:51:13 10° NNW 22:56:22 90° NE 22:58:30 36° SSE
BREEZE M DEB (TANK) 3.2 22:50:09 10° WNW 22:57:37 42° SW 22:58:38 34° SSW
USA 234 3.9 22:51:21 10° NE 22:57:46 59° NW 23:04:10 10° WSW
ISS -0.7 22:57:11 10° NW 22:59:01 14° N 23:00:51 10° NNE
Cosmos 2219 Rocket 2.8 22:54:01 10° NNW 22:59:23 45° ENE 23:01:38 30° ESE
Tiangong 2 1.2 22:56:49 10° WNW 22:59:58 71° N 23:00:15 64° NE
Cosmos 1634 Rocket 4.4 22:58:15 32° SE 23:00:45 47° E 23:06:46 10° NNE
Cosmos 2333 4.2 22:55:11 10° NNW 23:00:51 70° ENE 23:03:13 36° SE
Shenzhou-11 Module 3.7 22:59:23 10° W 23:01:06 24° WSW 23:01:06 24° WSW
Cosmos 1356 Rocket 3.4 23:05:19 41° S 23:06:47 90° NNW 23:11:07 10° N
ERS-1 Rocket 3.9 23:07:42 22° SSW 23:10:33 42° W 23:15:19 10° NNW
COSMOS 2455 4.0 23:10:58 25° E 23:10:58 25° E 23:15:23 10° NE
Cosmos 1892 Rocket 4.4 23:14:31 33° E 23:14:31 33° E 23:18:16 10° NNE
CZ-2C R/B 3.4 23:16:09 40° SE 23:17:50 56° ENE 23:23:21 10° N
Helios 1B rocket 2.5 23:13:50 10° N 23:17:58 74° WNW 23:19:16 42° SSW
SJ 16-02 2.2 23:14:54 10° NNW 23:19:05 42° WSW 23:20:26 32° SW
Cosmos 2228 3.8 23:21:38 10° N 23:25:38 37° ENE 23:25:44 37° E
Cosmos 2333 Rocket 2.3 23:20:16 10° NNW 23:25:57 65° ENE 23:27:41 44° SE
Okean 1-7 Rocket 3.5 23:27:08 60° S 23:27:56 83° E 23:32:30 10° N
SL-16 R/B 4.2 23:24:12 10° N 23:27:58 18° NE 23:30:55 13° E
CENTAUR R/B 4.1 23:22:35 10° WSW 23:28:12 36° NW 23:34:36 10° NNE
SPOT 1/Viking Rocket 4.2 23:26:19 32° SSW 23:28:24 49° W 23:33:24 10° NNW
COSMOS 2428 2.7 23:23:15 10° NNW 23:28:55 76° WSW 23:30:38 46° S
IGS 5A 3.5 23:28:32 61° SSW 23:29:06 71° WSW 23:33:16 10° NNW
Meteor 1-29 3.3 23:27:43 10° N 23:31:10 61° WNW 23:31:15 60° W
H-2A R/B 3.9 23:29:02 12° SW 23:32:10 21° W 23:35:59 10° NW
CZ-4C R/B 2.9 23:25:03 10° NW 23:32:22 87° WSW 23:35:47 39° SSE
Cosmos 1726 Rocket 3.6 23:29:16 10° N 23:33:39 61° E 23:33:54 60° E
Cosmos 1125 Rocket 4.3 23:31:30 10° NNW 23:36:27 43° WSW 23:38:03 33° SW
Cosmos 1980 4.2 23:32:13 10° NNW 23:37:42 48° ENE 23:39:12 39° ESE
Lacrosse 5 rocket 2.7 23:34:43 10° WNW 23:38:05 27° WSW 23:38:05 27° WSW
Cosmos 1092 Rocket 4.2 23:37:06 10° NNW 23:43:23 65° W 23:45:54 37° SSW
Cosmos 2297 Rocket 2.7 23:44:24 41° ESE 23:44:24 41° ESE 23:49:36 10° NE
Cosmos 2227 Rocket 2.4 23:47:43 49° ESE 23:47:56 49° ESE 23:53:23 10° NE
Cosmos 1953 4.1 23:45:09 10° NNE 23:47:46 21° ENE 23:47:46 21° ENE
Cosmos 2058 Rocket 3.1 23:46:17 10° N 23:50:47 66° E 23:50:48 66° E
